{"data":{"norad_id":67412,"intl_designator":"2026-005J","name":"STARLINK-36446","alt_names":[],"object_type":"PAYLOAD","status":"ACTIVE","operator":null,"country":"US","launch_date":"2026-01-12","launch_site_code":"AFETR","launch_vehicle":null,"mission":null,"orbit_class":"UNKNOWN","rcs_meters":null,"size_class":null,"mass_kg":null,"dimensions":null,"purposes":["comms"],"wikipedia_slug":null,"has_3d_model":false,"image_url":null,"decayed_at":null,"tle_current":{"epoch":"2026-09-19T22:23:12.890112Z","epoch_age_seconds":124362,"freshness":"FRESH","line1":"1 67412U 26005J   26262.93278808  .00009110  00000+0  34001-3 0  9997","line2":"2 67412  42.9999 220.9851 0000220 109.4344 250.6531 15.27592618 38403","mean_motion":15.27592618,"eccentricity":2.2e-5,"inclination_deg":42.9999,"raan_deg":220.9851,"arg_perigee_deg":109.4344,"mean_anomaly_deg":250.6531,"bstar":0.00034001,"rev_number":3840,"period_min":94.265970065064,"perigee_km":482.86036820553,"apogee_km":483.16225873132,"semimajor_km":6861.1483134684,"source":"CELESTRAK","updated_at":"2026-09-20T09:00:43.520378Z"}}}